TimeAST,TemperatureF,Dew PointF,Humidity,Sea Level PressureIn,VisibilityMPH,Wind Direction,Wind SpeedMPH,Gust SpeedMPH,PrecipitationIn,Events,Conditions,WindDirDegrees,DateUTC
12:00 AM,84.2,75.2,74,29.95,6.2,ESE,5.8,-,N/A,,Scattered Clouds,110,2013-09-27 04:00:00
1:00 AM,84.2,75.2,74,29.92,6.2,ESE,5.8,-,N/A,,Partly Cloudy,110,2013-09-27 05:00:00
2:00 AM,83,74,69,29.93,9,ESE,5.8,,,Rain,Light Rain Showers,110,2013-09-27 06:00:00
2:00 AM,84.2,75.2,74,29.92,6.2,ESE,5.8,-,N/A,Rain,Light Rain Showers,110,2013-09-27 06:00:00
3:00 AM,82.4,75.2,79,29.92,6.2,East,9.2,-,N/A,Rain,Light Rain Showers,100,2013-09-27 07:00:00
4:00 AM,82.4,73.4,74,29.92,6.2,SE,11.5,-,N/A,,Partly Cloudy,130,2013-09-27 08:00:00
5:00 AM,83,75,70,29.94,19,ESE,6.9,,,,Partly Cloudy,120,2013-09-27 09:00:00
5:00 AM,82.4,75.2,79,29.92,6.2,ESE,6.9,-,N/A,,Partly Cloudy,120,2013-09-27 09:00:00
6:00 AM,82.4,73.4,74,29.95,6.2,SE,9.2,-,N/A,,Partly Cloudy,130,2013-09-27 10:00:00
7:00 AM,84.2,75.2,74,29.95,6.2,SE,10.4,-,N/A,,Partly Cloudy,130,2013-09-27 11:00:00
8:00 AM,85,75,65,29.97,44,SE,10.4,,,,Partly Cloudy,130,2013-09-27 12:00:00
8:00 AM,84.2,75.2,74,29.95,6.2,ESE,10.4,-,N/A,,Partly Cloudy,120,2013-09-27 12:00:00
9:00 AM,86.0,75.2,70,29.98,6.2,SE,10.4,-,N/A,,Partly Cloudy,130,2013-09-27 13:00:00
10:00 AM,86.0,75.2,70,29.98,6.2,SE,10.4,-,N/A,,Partly Cloudy,130,2013-09-27 14:00:00
11:00 AM,87,75,60,29.99,40,SSE,6.9,,,,Scattered Clouds,150,2013-09-27 15:00:00
11:00 AM,86.0,75.2,70,29.98,6.2,SE,8.1,-,N/A,,Partly Cloudy,130,2013-09-27 15:00:00
12:00 PM,87.8,75.2,66,29.95,6.2,SE,6.9,-,N/A,,Partly Cloudy,140,2013-09-27 16:00:00
1:00 PM,87.8,75.2,66,29.92,6.2,SE,9.2,-,N/A,,Scattered Clouds,130,2013-09-27 17:00:00
2:00 PM,87,75,60,29.91,37,SSE,6.9,,,,Partly Cloudy,160,2013-09-27 18:00:00
2:00 PM,87.8,75.2,66,29.89,6.2,SSE,6.9,-,N/A,,Scattered Clouds,160,2013-09-27 18:00:00
3:00 PM,86.0,75.2,70,29.89,6.2,SSE,10.4,-,N/A,,Scattered Clouds,150,2013-09-27 19:00:00
4:00 PM,86.0,75.2,70,29.89,6.2,SSE,8.1,-,N/A,,Scattered Clouds,150,2013-09-27 20:00:00
5:00 PM,85,75,65,29.89,37,SSE,8.1,,,,Scattered Clouds,150,2013-09-27 21:00:00
5:00 PM,86.0,75.2,70,29.89,6.2,SSE,8.1,-,N/A,,Scattered Clouds,150,2013-09-27 21:00:00
6:00 PM,84.2,75.2,74,29.89,6.2,ESE,5.8,-,N/A,,Partly Cloudy,120,2013-09-27 22:00:00
7:00 PM,84.2,75.2,74,29.92,6.2,ESE,3.5,-,N/A,,Partly Cloudy,110,2013-09-27 23:00:00
8:00 PM,84,75,68,29.93,37,ESE,8.1,,,,Scattered Clouds,110,2013-09-28 00:00:00
8:00 PM,84.2,75.2,74,29.92,6.2,ESE,8.1,-,N/A,,Partly Cloudy,110,2013-09-28 00:00:00
9:00 PM,84.2,75.2,74,29.95,6.2,East,5.8,-,N/A,,Partly Cloudy,100,2013-09-28 01:00:00
10:00 PM,84.2,75.2,74,29.95,6.2,East,4.6,-,N/A,,Partly Cloudy,100,2013-09-28 02:00:00
11:00 PM,83,75,71,29.98,37,East,3.5,,,,Partly Cloudy,100,2013-09-28 03:00:00
11:00 PM,82.4,75.2,79,29.98,6.2,East,3.5,-,N/A,,Scattered Clouds,100,2013-09-28 03:00:00